TimeEST,TemperatureF,Dew PointF,Humidity,Sea Level PressureIn,VisibilityMPH,Wind Direction,Wind SpeedMPH,Gust SpeedMPH,PrecipitationIn,Events,Conditions,WindDirDegrees,DateUTC
12:53 AM,30.0,27.0,88,30.37,10.0,Calm,Calm,-,N/A,,Clear,0,2014-01-01 05:53:00
1:53 AM,30.0,27.0,88,30.34,8.0,Calm,Calm,-,N/A,,Clear,0,2014-01-01 06:53:00
2:53 AM,30.9,27.0,85,30.35,10.0,Calm,Calm,-,N/A,,Clear,0,2014-01-01 07:53:00
3:53 AM,30.0,27.0,88,30.33,7.0,Calm,Calm,-,N/A,,Clear,0,2014-01-01 08:53:00
4:53 AM,28.9,27.0,92,30.31,8.0,Calm,Calm,-,N/A,,Clear,0,2014-01-01 09:53:00
5:53 AM,28.0,26.1,92,30.32,5.0,SE,3.5,-,N/A,,Clear,130,2014-01-01 10:53:00
6:53 AM,28.0,26.1,92,30.35,6.0,Calm,Calm,-,N/A,,Clear,0,2014-01-01 11:53:00
7:53 AM,27.0,25.0,92,30.35,4.0,Calm,Calm,-,N/A,,Clear,0,2014-01-01 12:53:00
8:53 AM,30.0,28.0,92,30.35,4.0,Calm,Calm,-,N/A,,Clear,0,2014-01-01 13:53:00
9:53 AM,35.1,30.9,85,30.37,7.0,Calm,Calm,-,N/A,,Clear,0,2014-01-01 14:53:00
10:53 AM,41.0,30.0,65,30.36,10.0,ESE,4.6,-,N/A,,Clear,120,2014-01-01 15:53:00
11:53 AM,44.1,28.9,55,30.33,10.0,SSE,4.6,-,N/A,,Clear,150,2014-01-01 16:53:00
12:53 PM,46.0,30.0,54,30.29,10.0,SE,6.9,-,N/A,,Clear,130,2014-01-01 17:53:00
1:53 PM,48.9,30.0,48,30.25,10.0,SSE,5.8,-,N/A,,Clear,150,2014-01-01 18:53:00
2:53 PM,48.9,30.9,50,30.22,10.0,South,5.8,-,N/A,,Clear,170,2014-01-01 19:53:00
3:53 PM,48.9,30.9,50,30.21,10.0,Variable,5.8,-,N/A,,Clear,0,2014-01-01 20:53:00
4:53 PM,48.0,30.9,52,30.20,10.0,SE,4.6,-,N/A,,Clear,130,2014-01-01 21:53:00
5:53 PM,41.0,36.0,82,30.19,10.0,Calm,Calm,-,N/A,,Clear,0,2014-01-01 22:53:00
6:53 PM,39.9,35.1,83,30.20,10.0,Calm,Calm,-,N/A,,Clear,0,2014-01-01 23:53:00
7:53 PM,44.1,34.0,68,30.18,10.0,Calm,Calm,-,N/A,,Overcast,0,2014-01-02 00:53:00
8:35 PM,44.6,33.8,66,30.18,10.0,ESE,3.5,-,N/A,,Overcast,110,2014-01-02 01:35:00
8:53 PM,45.0,33.1,63,30.18,10.0,SE,3.5,-,N/A,,Overcast,130,2014-01-02 01:53:00
9:53 PM,45.0,34.0,65,30.17,10.0,Calm,Calm,-,N/A,,Overcast,0,2014-01-02 02:53:00
10:53 PM,45.0,35.1,68,30.15,10.0,Calm,Calm,-,N/A,,Overcast,0,2014-01-02 03:53:00
11:53 PM,45.0,35.1,68,30.12,10.0,Calm,Calm,-,N/A,,Overcast,0,2014-01-02 04:53:00